Regional Weather Roundup
Issued by NWS Mobile, AL

Home | Current Version | Previous Version | Text Only | Print | Product List | Glossary On
Versions: 1 2 3 4 5 6 7 8 9 10 11 12 13 14 15 16 17 18 19 20 21 22 23 24 25 26 27 28 29 30 31 32 33 34 35 36 37 38 39 40 41 42 43 44 45 46 47 48 49 50
000
ASUS44 KMOB 241916
RWRMOB
REGIONAL WEATHER ROUNDUP
NATIONAL WEATHER SERVICE MOBILE AL
200 PM CDT SUN MAY 24 2015

ALZ061>064-242000-
COASTAL ALABAMA


CITY           SKY/WX    TMP DP  RH WIND       PRES   REMARKS
MOBILE REG APT LGT RAIN  79  75  87 SE22G29   30.13F FOG
BROOKLEY FIELD LGT RAIN  84  75  74 SE18G28   30.14F
GULF SHORES    CLOUDY    83  76  77 SE18G26   30.14F

$$

ALZ051>060-242000-
INTERIOR SOUTHWEST AND SOUTH CENTRAL ALABAMA


CITY           SKY/WX    TMP DP  RH WIND       PRES   REMARKS
ANDALUSIA/OPP  PTSUNNY   86  68  54 S8        30.17F
EVERGREEN      LGT RAIN  80  70  71 SE14      30.15F
FLORALA        TSTM      72  70  94 SW10G24   30.20S VSB 3/4
GREENVILLE     FAIR      85  69  58 SE16      30.16F

$$

FLZ001>006-242000-
WESTERN FLORIDA PANHANDLE


CITY           SKY/WX    TMP DP  RH WIND       PRES   REMARKS
CRESTVIEW      MOSUNNY   89  69  51 S8G23     30.17F
DESTIN         SUNNY     85  73  67 SE17G25   30.16F
DUKE FIELD     FAIR      87  70  57 S17       30.15F
MARY ESTHER    MOSUNNY   85  73  66 SE18G24   30.15F
MILTON           N/A    N/A N/A N/A MISG      30.16F
PENSACOLA      PTSUNNY   83  74  74 SE20      30.16F
NAS PENSACOLA  PTSUNNY   86  73  65 SE22G29   30.15F
VALPARAISO     PTSUNNY   87  72  62 S22G28    30.16F

$$

...MARINE OBSERVATIONS...

STATION/POSITION TIME  SKY/WX   TEMP    WIND        PRES    VSBY
                                AIR SEA DIR/SP/G
                 (UTC)          (F)     (DEG/KT/KT) (MB)    (MI)
PASCAGOULA       1800            82     150/ 18/ 22 1020.0F
PETIT BOIS ISL   1800            84     140/ 15/ 21 1020.6F
E DAUPHIN ISLAND 1900            81     130/ 21/ 23 1019.8F
MIDDLE BAY LIGHT 1800            80     140/ 25     1020.0S
USCG MOBILE BAY  1800            82 81  160/ 14/ 21 1019.5F
STATE DOCKS      1800            83 80              1020.5F
MEAHER PARK      1900            83     150/ 16     1019.3S
FORT MORGAN      1800            82     150/ 21/ 25 1020.2F
12 S ORANGE BCH  1850            80 81  130/ 19/ 23 1019.6F
WVE H/P(F/S)=  5/ 6

PENSACOLA BAY    1800            83 82  150/  7/ 13 1021.8F
64 S DAUPHIN ISL 1850            81 81  120/ 16/ 19 1020.1F
WVE H/P(F/S)=  4/ 6

67 S FORT MORGAN 1830                               1020.0F
115 SE PENSACOLA 1850            80 81  120/ 16/ 17 1021.4F
WVE H/P(F/S)=  5/ 6

MID GULF/42001   1850            82 82  140/ 12/ 14 1018.6F
WVE H/P(F/S)=  4/ 6

EAST GULF/42003  1850            82 82  110/ 14/ 16 1019.6F
WVE H/P(F/S)=  4/ 6


$$

...NEARBY LOCATIONS

CITY           SKY/WX    TMP DP  RH WIND       PRES   REMARKS
GULFPORT       CLOUDY    86  75  69 SE22      30.10F HX  95
BILOXI         PTSUNNY   85  76  73 SE17G25   30.10F HX  95
PASCAGOULA     CLOUDY    84  73  69 SE22G31   30.11F
HATTIESBURG    TSTM      74  67  78 SW18G40   30.13R
LAUREL         CLOUDY    75  66  73 S6        30.11F
MERIDIAN       LGT RAIN  76  69  79 E8        30.10F
MERIDIAN NAS   PTSUNNY   85  68  56 SE13G21   30.09F THUNDER
MONTGOMERY     PTSUNNY   86  70  58 E12       30.18F
MAXWELL AFB    CLOUDY    84  69  62 SE9       30.17F
TROY           PTSUNNY   84  69  60 SE10      30.20F
FORT RUCKER    PTSUNNY   86  68  54 VRB7      30.17F
DALEVILLE      MOSUNNY   87  69  54 SE12      30.18F
DOTHAN         MOSUNNY   86  66  51 E10       30.22F

$$

...OTHER SURROUNDING LOCATIONS...

CITY           SKY/WX    TMP DP  RH WIND       PRES   REMARKS
BIRMINGHAM     CLOUDY    80  67  64 SE8       30.22F
TUSCALOOSA     MOSUNNY   85  69  58 SE13G20   30.14F
COLUMBUS GA    CLOUDY    82  63  52 SE12      30.23F
PANAMA CITY    NOT AVBL
TALLAHASSEE    PTSUNNY   90  66  45 E12       30.19F
BATON ROUGE    PTSUNNY   87  70  56 S17G25    30.02F
NEW ORLEANS    PTSUNNY   86  71  60 S22G31    30.06F
SLIDELL        PTSUNNY   87  73  62 S17G26    30.07F
JACKSON        PTSUNNY   85  69  58 SE15      30.04F
MCCOMB         PTSUNNY   86  72  62 S15       30.05F

$$

...SURROUNDING MARINE OBSERVATIONS...

STATION/POSITION TIME  SKY/WX   TEMP    WIND        PRES    VSBY
                                AIR SEA DIR/SP/G
                 (UTC)          (F)     (DEG/KT/KT) (MB)    (MI)
WAVELAND         1800            81 81  150/ 15/ 18 1019.4F
PASCAGOULA RGN A 1800            85     140/ 15/ 22 1019.7F
PASCAGOULA PORT  1800               81                N/A
GRAND ISLE       1800            84 82  160/ 11/ 15 1019.3F
SOUTHWEST PASS   1900            82     150/ 17/ 18 1019.1F
PILOT STATION E  1800            84 75  150/ 11/ 17 1020.0S
SHELL BEACH      1800            84 83  150/ 18/ 22 1018.6F
PANAMA CITY      1800            83 80  160/ 16/ 19 1021.3F
APALACHICOLA     1800            79 81  120/ 10/ 12 1022.8F
TYNDALL TOWER C  1900            78     100/ 15/ 16 1022.2F
S APLCHCLA/42036 1850            80 80  110/ 12/ 14 1021.8F
WVE H/P(F/S)=  4/ 5


$$




USA.gov is the U.S. government's official web portal to all federal, state and local government web resources and services.